TimeCST,TemperatureF,Dew PointF,Humidity,Sea Level PressureIn,VisibilityMPH,Wind Direction,Wind SpeedMPH,Gust SpeedMPH,PrecipitationIn,Events,Conditions,WindDirDegrees,DateUTC
12:53 AM,57.0,55.0,93,30.20,7.0,North,8.1,-,N/A,,Overcast,10,2012-12-05 06:53:00
1:27 AM,55.4,53.6,94,30.22,2.0,North,9.2,-,N/A,,Overcast,360,2012-12-05 07:27:00
1:53 AM,55.0,54.0,96,30.21,2.5,NNE,8.1,-,0.00,,Overcast,20,2012-12-05 07:53:00
2:05 AM,55.4,53.6,94,30.22,3.0,North,6.9,-,N/A,,Overcast,10,2012-12-05 08:05:00
2:28 AM,55.4,53.6,94,30.22,2.5,North,8.1,-,N/A,,Overcast,360,2012-12-05 08:28:00
2:53 AM,55.0,53.1,93,30.22,2.5,North,6.9,-,N/A,,Overcast,10,2012-12-05 08:53:00
3:18 AM,53.6,53.6,100,30.22,3.0,North,8.1,-,N/A,,Overcast,10,2012-12-05 09:18:00
3:53 AM,54.0,52.0,93,30.22,3.0,North,5.8,-,N/A,,Overcast,360,2012-12-05 09:53:00
4:37 AM,53.6,51.8,94,30.22,6.0,North,5.8,-,N/A,,Overcast,360,2012-12-05 10:37:00
4:53 AM,53.1,51.1,93,30.22,6.0,North,3.5,-,0.00,Rain,Light Rain,350,2012-12-05 10:53:00
5:01 AM,53.6,51.8,94,30.23,8.0,North,3.5,-,0.00,Rain,Light Rain,350,2012-12-05 11:01:00
5:28 AM,53.6,50.0,88,30.23,10.0,NNE,4.6,-,0.00,,Overcast,20,2012-12-05 11:28:00
5:41 AM,53.6,50.0,88,30.23,10.0,North,5.8,-,0.00,,Overcast,10,2012-12-05 11:41:00
5:53 AM,52.0,50.0,93,30.23,10.0,North,6.9,-,0.00,,Overcast,360,2012-12-05 11:53:00
6:53 AM,52.0,48.9,89,30.25,10.0,NNE,3.5,-,N/A,,Overcast,20,2012-12-05 12:53:00
8:53 AM,53.1,46.9,80,30.27,10.0,NNE,5.8,-,N/A,,Overcast,30,2012-12-05 14:53:00
9:41 AM,53.6,46.4,77,30.27,10.0,North,6.9,-,N/A,,Overcast,360,2012-12-05 15:41:00
9:53 AM,53.1,46.9,80,30.27,10.0,North,6.9,-,N/A,,Overcast,360,2012-12-05 15:53:00
10:15 AM,53.6,46.4,77,30.26,10.0,NE,5.8,-,N/A,,Overcast,40,2012-12-05 16:15:00
10:49 AM,53.6,46.4,77,30.25,10.0,NNE,6.9,-,N/A,,Overcast,30,2012-12-05 16:49:00
10:53 AM,55.0,48.0,77,30.25,10.0,NE,8.1,-,N/A,,Overcast,40,2012-12-05 16:53:00
11:53 AM,57.0,48.0,72,30.21,10.0,NE,5.8,-,N/A,,Overcast,50,2012-12-05 17:53:00
12:53 PM,59.0,48.9,69,30.18,10.0,Variable,4.6,-,N/A,,Overcast,0,2012-12-05 18:53:00
1:08 PM,59.0,48.2,67,30.18,10.0,ENE,6.9,-,N/A,,Overcast,70,2012-12-05 19:08:00
1:42 PM,60.8,50.0,68,30.17,10.0,ENE,5.8,-,N/A,,Overcast,60,2012-12-05 19:42:00
1:53 PM,59.0,48.9,69,30.17,10.0,North,5.8,-,N/A,,Overcast,360,2012-12-05 19:53:00
2:53 PM,60.1,50.0,69,30.15,10.0,North,8.1,-,N/A,,Overcast,10,2012-12-05 20:53:00
3:53 PM,57.9,48.9,72,30.15,10.0,NNE,5.8,-,N/A,,Overcast,30,2012-12-05 21:53:00
4:53 PM,55.9,50.0,80,30.16,10.0,NNW,6.9,-,N/A,,Overcast,340,2012-12-05 22:53:00
5:53 PM,55.9,48.9,77,30.15,10.0,NE,4.6,-,N/A,,Overcast,50,2012-12-05 23:53:00
6:53 PM,55.0,50.0,83,30.15,10.0,Calm,Calm,-,N/A,,Overcast,0,2012-12-06 00:53:00
7:53 PM,55.0,48.9,80,30.15,10.0,NNE,3.5,-,N/A,,Overcast,20,2012-12-06 01:53:00
8:00 PM,53.6,48.2,82,30.15,10.0,NNE,4.6,-,N/A,,Overcast,20,2012-12-06 02:00:00
8:53 PM,54.0,50.0,86,30.14,10.0,NE,5.8,-,N/A,,Overcast,50,2012-12-06 02:53:00
9:53 PM,54.0,50.0,86,30.13,8.0,Calm,Calm,-,N/A,,Overcast,0,2012-12-06 03:53:00
10:53 PM,53.1,50.0,89,30.11,8.0,Calm,Calm,-,N/A,,Overcast,0,2012-12-06 04:53:00
11:22 PM,53.6,50.0,88,30.10,8.0,Calm,Calm,-,N/A,,Overcast,0,2012-12-06 05:22:00
11:53 PM,53.1,50.0,89,30.08,8.0,Calm,Calm,-,N/A,,Overcast,0,2012-12-06 05:53:00